Weather History for Pascagoula, MS

Change the Weather History Date:

Tuesday, May 29, 2012

  Actual Average Record
Temperature  
Mean Temperature 82 °F -  
Max Temperature 93 °F 85 °F 96 °F (1978)
Min Temperature 71 °F 69 °F 52 °F (1961)
Cooling Degree Days 17    
Growing Degree Days 32 (Base 50)    
Moisture  
Dew Point 70 °F    
Average Humidity 71    
Maximum Humidity 94    
Minimum Humidity 45    
Precipitation  
Precipitation 0.93 in - - ()
Sea Level Pressure  
Sea Level Pressure 29.86 in    
Wind  
Wind Speed 3 mph (WNW)    
Max Wind Speed 20 mph    
Max Gust Speed 33 mph    
Visibility 7 miles    
Events Rain , Thunderstorm    
Averages and records for this station are not official NWS values.
T = Trace of Precipitation, MM = Missing Value Source: NWS Daily Summary

Daily Weather History Graph

Daily Weather History Graph

Search for Another Location

Airport:

Trip Planner

Search our weather history database for the weather conditions in past years. The results will help you decide how hot, cold, wet, or windy it might be!

Date:

Astronomy

May. 29, 2012 Rise Set
Actual Time 5:53 AM CDT 7:50 PM CDT
Civil Twilight 5:26 AM CDT 8:17 PM CDT
Nautical Twilight 4:53 AM CDT 8:50 PM CDT
Astronomical Twilight 4:18 AM CDT 9:25 PM CDT
Moon 1:44 PM CDT (5/29) 1:20 AM CDT (5/29)
Length of Visible Light 14h 51m
Length of Day
13h 57m
First Quarter, 59% of the Moon is Illuminated
May 29
First Quarter
Jun 4
Full
Jun 11
Last Quarter
Jun 19
New
Jun 26
First Quarter

Hourly Weather History & Observations

Time (CDT) Temp. Heat Index Dew Point Humidity Pressure Visibility Wind Dir Wind Speed Gust Speed Precip Events Conditions
12:53 AM 73.0 °F - 70.0 °F 90% 29.86 in 4.0 mi Calm Calm - N/A   Clear
1:53 AM 71.1 °F - 69.1 °F 93% 29.85 in 4.0 mi Calm Calm - N/A   Clear
2:53 AM 71.1 °F - 68.0 °F 90% 29.84 in 3.0 mi Calm Calm - N/A   Clear
3:53 AM 71.1 °F - 68.0 °F 90% 29.85 in 4.0 mi Calm Calm - N/A   Clear
4:53 AM 71.1 °F - 69.1 °F 93% 29.86 in 4.0 mi Calm Calm - N/A   Scattered Clouds
5:10 AM 71.6 °F - 69.8 °F 94% 29.85 in 2.5 mi Calm Calm - N/A   Scattered Clouds
5:20 AM 71.6 °F - 69.8 °F 94% 29.86 in 4.0 mi Calm Calm - N/A   Partly Cloudy
5:53 AM 73.0 °F - 70.0 °F 90% 29.88 in 4.0 mi Calm Calm - N/A   Partly Cloudy
6:53 AM 75.0 °F - 70.0 °F 84% 29.90 in 5.0 mi WNW 5.8 mph - N/A   Haze
7:53 AM 79.0 °F - 70.0 °F 74% 29.90 in 7.0 mi NW 6.9 mph - N/A   Partly Cloudy
8:53 AM 82.0 °F 85.9 °F 70.0 °F 67% 29.90 in 8.0 mi North 5.8 mph - N/A   Clear
9:53 AM 86.0 °F 90.1 °F 69.1 °F 57% 29.91 in 10.0 mi NW 5.8 mph - N/A   Clear
10:53 AM 89.1 °F 94.1 °F 70.0 °F 53% 29.90 in 10.0 mi NW 6.9 mph - N/A   Clear
11:53 AM 90.0 °F 95.4 °F 70.0 °F 52% 29.90 in 10.0 mi NW 6.9 mph - N/A   Clear
12:53 PM 91.9 °F 98.4 °F 71.1 °F 50% 29.89 in 10.0 mi Calm Calm - N/A   Clear
1:53 PM 93.0 °F 97.9 °F 69.1 °F 45% 29.88 in 10.0 mi Variable 4.6 mph - N/A   Partly Cloudy
2:53 PM 93.0 °F 97.9 °F 69.1 °F 45% 29.86 in 10.0 mi WSW 3.5 mph - N/A   Clear
3:53 PM 89.1 °F 96.0 °F 72.0 °F 57% 29.84 in 7.0 mi SW 11.5 mph 16.1 mph 0.00 in Rain Light Rain
3:56 PM 86.0 °F 93.4 °F 73.4 °F 66% 29.85 in 2.5 mi WSW 13.8 mph - 0.06 in Rain , Thunderstorm Heavy Thunderstorms and Rain
4:03 PM 80.6 °F 83.9 °F 69.8 °F 70% 29.86 in 4.0 mi ENE 19.6 mph 33.4 mph 0.29 in Rain , Thunderstorm Heavy Thunderstorms and Rain
4:12 PM 78.8 °F - 66.2 °F 65% 29.84 in 4.0 mi SSW 10.4 mph 31.1 mph 0.51 in Rain , Thunderstorm Heavy Thunderstorms and Rain
4:39 PM 80.6 °F 83.9 °F 69.8 °F 70% 29.85 in 4.0 mi NNE 12.7 mph 23.0 mph 0.93 in Thunderstorm Unknown
4:53 PM 84.9 °F 87.1 °F 66.0 °F 53% 29.83 in 4.0 mi West 4.6 mph 25.3 mph 0.93 in   Haze
5:53 PM 87.1 °F 94.5 °F 73.0 °F 63% 29.83 in 10.0 mi Calm Calm - N/A   Scattered Clouds
6:53 PM 86.0 °F 89.4 °F 68.0 °F 55% 29.83 in 10.0 mi SW 5.8 mph - N/A   Clear
7:53 PM 84.0 °F 86.5 °F 66.9 °F 56% 29.84 in 10.0 mi WSW 3.5 mph - N/A   Clear
8:53 PM 82.0 °F 86.3 °F 71.1 °F 69% 29.85 in 10.0 mi Calm Calm - N/A   Clear
9:53 PM 77.0 °F - 72.0 °F 84% 29.87 in 10.0 mi Calm Calm - N/A   Clear
10:53 PM 75.0 °F - 72.0 °F 90% 29.87 in 9.0 mi Calm Calm - N/A   Clear
11:53 PM 78.1 °F - 69.1 °F 74% 29.86 in 10.0 mi Calm Calm - N/A   Clear